FW7746 Weather Reports


Display with metric or nautical units.
time (UTC)temp
F
wind
direction
speed
MPH
gust
MPH
rain 1hr
in
rain 24hr
in
rain mn
in
humidity
%
barometer
mb
20260507205103 79 294 0.0 2.0 0.00 0.00 0.00 22 1012.3
20260507204104 77 287 0.0 1.0 0.00 0.00 0.00 22 1012.5
20260507202604 76 341 1.0 2.0 0.00 0.00 0.00 24 1012.7
20260507202103 76 322 1.0 3.0 0.00 0.00 0.00 25 1012.6
20260507201603 75 276 0.0 3.0 0.00 0.00 0.00 25 1012.6
20260507201103 74 324 0.0 3.0 0.00 0.00 0.00 25 1012.7
20260507200603 74 325 2.0 6.0 0.00 0.00 0.00 26 1012.7
20260507200104 74 327 3.0 10.0 0.00 0.00 0.00 25 1012.7
20260507195604 74 324 1.0 8.0 0.00 0.00 0.00 25 1012.8
20260507195104 74 324 3.0 10.0 0.00 0.00 0.00 26 1012.8
20260507194603 75 305 2.0 5.0 0.00 0.00 0.00 26 1012.8
20260507194104 74 325 1.0 7.0 0.00 0.00 0.00 26 1013.0
20260507193604 74 326 3.0 9.0 0.00 0.00 0.00 27 1012.9
20260507192604 75 333 2.0 6.0 0.00 0.00 0.00 24 1013.0
20260507192103 76 325 1.0 3.0 0.00 0.00 0.00 24 1013.0
20260507191603 75 319 1.0 5.0 0.00 0.00 0.00 25 1013.1
20260507191103 75 67 0.0 1.0 0.00 0.00 0.00 26 1013.2
20260507190603 75 71 0.0 2.0 0.00 0.00 0.00 25 1013.3
20260507190104 74 92 1.0 5.0 0.00 0.00 0.00 25 1013.2
20260507185603 74 312 1.0 3.0 0.00 0.00 0.00 25 1013.2
20260507185103 74 210 1.0 8.0 0.00 0.00 0.00 26 1013.2
20260507184603 75 328 2.0 9.0 0.00 0.00 0.00 25 1013.1
20260507183604 75 216 1.0 8.0 0.00 0.00 0.00 24 1013.1
20260507183103 75 42 0.0 3.0 0.00 0.00 0.00 22 1013.1
20260507182604 75 102 0.0 3.0 0.00 0.00 0.00 23 1013.3
20260507182103 74 57 1.0 5.0 0.00 0.00 0.00 22 1013.3
20260507181103 73 93 0.0 0.0 0.00 0.00 0.00 23 1013.5
20260507180603 73 83 0.0 3.0 0.00 0.00 0.00 24 1013.6
20260507175604 72 86 0.0 3.0 0.00 0.00 0.00 26 1013.7
20260507175104 72 206 0.0 3.0 0.00 0.00 0.00 27 1013.8
20260507174103 71 162 0.0 1.0 0.00 0.00 0.00 28 1013.8
20260507173603 71 163 0.0 3.0 0.00 0.00 0.00 28 1013.9
20260507173104 70 151 0.0 3.0 0.00 0.00 0.00 29 1014.1
20260507172604 70 98 1.0 5.0 0.00 0.00 0.00 28 1014.2
20260507172103 69 83 0.0 0.0 0.00 0.00 0.00 29 1014.2
20260507171603 69 77 0.0 3.0 0.00 0.00 0.00 31 1014.2
20260507171104 68 355 0.0 2.0 0.00 0.00 0.00 33 1014.3
20260507170604 67 268 0.0 0.0 0.00 0.00 0.00 34 1014.3
20260507170104 67 269 0.0 0.0 0.00 0.00 0.00 34 1014.3
20260507165603 67 269 0.0 0.0 0.00 0.00 0.00 34 1014.3
20260507165104 67 269 0.0 3.0 0.00 0.00 0.00 34 1014.3
20260507164604 67 336 0.0 2.0 0.00 0.00 0.00 35 1014.3
20260507164104 66 294 0.0 3.0 0.00 0.00 0.00 36 1014.3
20260507163103 66 178 0.0 2.0 0.00 0.00 0.00 37 1014.3
20260507162603 65 159 1.0 5.0 0.00 0.00 0.00 37 1014.4
20260507162104 65 137 0.0 1.0 0.00 0.00 0.00 38 1014.3
20260507161603 64 87 0.0 1.0 0.00 0.00 0.00 37 1014.3
20260507160603 63 143 0.0 3.0 0.00 0.00 0.00 40 1014.3
20260507160104 63 214 0.0 3.0 0.00 0.00 0.00 40 1014.4
20260507155604 63 225 0.0 3.0 0.00 0.00 0.00 40 1014.3
20260507155103 63 246 1.0 5.0 0.00 0.00 0.00 41 1014.5
20260507154603 62 232 1.0 3.0 0.00 0.00 0.00 41 1014.5
20260507154105 62 227 0.0 6.0 0.00 0.00 0.00 42 1014.4
20260507153603 62 257 1.0 5.0 0.00 0.00 0.00 42 1014.4
20260507153103 62 206 0.0 1.0 0.00 0.00 0.00 43 1014.4
20260507152604 61 175 0.0 2.0 0.00 0.00 0.00 43 1014.4
20260507152103 61 236 0.0 0.0 0.00 0.00 0.00 45 1014.5
20260507151603 60 236 0.0 0.0 0.00 0.00 0.00 46 1014.5
20260507151104 60 236 0.0 2.0 0.00 0.00 0.00 46 1014.5
20260507150603 60 238 0.0 3.0 0.00 0.00 0.00 47 1014.5
20260507150103 59 247 1.0 3.0 0.00 0.00 0.00 46 1014.5
20260507145604 59 214 0.0 3.0 0.00 0.00 0.00 49 1014.4
20260507145103 58 224 0.0 2.0 0.00 0.00 0.00 50 1014.4
20260507144603 58 232 0.0 2.0 0.00 0.00 0.00 50 1014.5
20260507144104 57 238 0.0 2.0 0.00 0.00 0.00 51 1014.5
20260507143603 57 238 1.0 3.0 0.00 0.00 0.00 52 1014.5
20260507143103 56 242 1.0 6.0 0.00 0.00 0.00 55 1014.5
20260507142103 55 246 0.0 3.0 0.00 0.00 0.00 57 1014.3
20260507141603 55 246 0.0 5.0 0.00 0.00 0.00 58 1014.2
20260507140603 54 243 1.0 3.0 0.00 0.00 0.00 58 1014.2
20260507140103 54 207 0.0 3.0 0.00 0.00 0.00 58 1014.2
20260507135604 53 215 0.0 2.0 0.00 0.00 0.00 59 1014.1
20260507135103 53 158 0.0 0.0 0.00 0.00 0.00 59 1014.1
20260507134603 53 196 0.0 1.0 0.00 0.00 0.00 59 1014.0
20260507134104 53 205 0.0 1.0 0.00 0.00 0.00 58 1014.0
20260507133603 53 206 0.0 2.0 0.00 0.00 0.00 58 1014.1
20260507132603 53 209 0.0 3.0 0.00 0.00 0.00 58 1013.8
20260507132103 53 169 0.0 3.0 0.00 0.00 0.00 58 1013.8
20260507131103 53 229 0.0 3.0 0.00 0.00 0.00 58 1013.7
20260507130104 53 184 0.0 3.0 0.00 0.00 0.00 58 1013.8
20260507125603 53 173 0.0 3.0 0.00 0.00 0.00 59 1013.8
20260507125104 53 262 0.0 1.0 0.00 0.00 0.00 60 1013.8
20260507124603 53 229 0.0 2.0 0.00 0.00 0.00 60 1013.9
20260507124104 53 225 0.0 1.0 0.00 0.00 0.00 60 1013.9
20260507123604 53 233 0.0 3.0 0.00 0.00 0.00 60 1013.9
20260507123103 53 198 0.0 3.0 0.00 0.00 0.00 59 1013.9
20260507122104 53 185 1.0 6.0 0.00 0.00 0.00 60 1014.0
20260507121103 52 231 0.0 1.0 0.00 0.00 0.00 61 1013.9
20260507120603 52 236 0.0 3.0 0.00 0.00 0.00 61 1014.0
20260507120104 52 193 0.0 1.0 0.00 0.00 0.00 62 1014.0
20260507115604 53 194 0.0 0.0 0.00 0.00 0.00 63 1014.1
20260507115103 53 195 0.0 0.0 0.00 0.00 0.00 63 1014.0
20260507114604 53 195 0.0 3.0 0.00 0.00 0.00 64 1014.0
20260507114104 53 200 0.0 1.0 0.00 0.00 0.00 64 1014.1
20260507113604 53 202 0.0 0.0 0.00 0.00 0.00 64 1014.1
20260507113104 53 202 0.0 0.0 0.00 0.00 0.00 63 1014.2
20260507112604 53 202 0.0 2.0 0.00 0.00 0.00 63 1014.1
20260507112103 53 192 0.0 1.0 0.00 0.00 0.00 63 1014.1
20260507111604 53 227 0.0 0.0 0.00 0.00 0.00 62 1014.2
20260507111103 53 229 0.0 0.0 0.00 0.00 0.00 62 1014.2
20260507110104 53 179 0.0 0.0 0.00 0.00 0.00 62 1014.1
20260507105609 53 180 0.0 0.0 0.00 0.00 0.00 61 1014.1
20260507104604 53 178 0.0 0.0 0.00 0.00 0.00 61 1014.1
20260507104103 54 175 0.0 0.0 0.00 0.00 0.00 61 1014.0
20260507103604 54 174 0.0 1.0 0.00 0.00 0.00 61 1014.0
20260507103103 54 169 0.0 0.0 0.00 0.00 0.00 61 1014.0
20260507102603 54 167 0.0 0.0 0.00 0.00 0.00 61 1014.0
20260507102104 54 169 0.0 0.0 0.00 0.00 0.00 61 1014.1
20260507101603 54 169 0.0 1.0 0.00 0.00 0.00 61 1014.2
20260507101104 54 173 0.0 2.0 0.00 0.00 0.00 61 1014.1
20260507100103 54 161 0.0 1.0 0.00 0.00 0.00 60 1014.2
20260507094104 55 194 0.0 1.0 0.00 0.00 0.00 61 1014.4
20260507093603 55 203 0.0 1.0 0.00 0.00 0.00 61 1014.5
20260507093104 54 164 0.0 2.0 0.00 0.00 0.00 61 1014.5
20260507092604 55 146 0.0 0.0 0.00 0.00 0.00 61 1014.6
20260507092103 54 145 0.0 0.0 0.00 0.00 0.00 61 1014.6
20260507091604 54 138 0.0 1.0 0.00 0.00 0.00 61 1014.7
20260507091103 54 292 0.0 0.0 0.00 0.00 0.00 61 1014.7
20260507090604 54 304 0.0 1.0 0.00 0.00 0.00 62 1014.8
20260507090105 54 322 0.0 0.0 0.00 0.00 0.00 62 1014.8
20260507085604 54 322 0.0 0.0 0.00 0.00 0.00 63 1015.0
20260507084604 53 324 0.0 0.0 0.00 0.00 0.00 65 1015.1
20260507084103 53 325 0.0 0.0 0.00 0.00 0.00 65 1015.0
20260507083604 53 325 0.0 0.0 0.00 0.00 0.00 65 1015.0
20260507083103 53 325 0.0 0.0 0.00 0.00 0.00 66 1015.0
20260507082604 53 325 0.0 0.0 0.00 0.00 0.00 67 1015.0
20260507082103 53 325 0.0 0.0 0.00 0.00 0.00 67 1014.9
20260507081604 52 325 0.0 0.0 0.00 0.00 0.00 67 1015.1
20260507081103 52 325 0.0 0.0 0.00 0.00 0.00 67 1015.1
20260507080603 52 325 0.0 0.0 0.00 0.00 0.00 67 1015.0
20260507080104 53 325 0.0 0.0 0.00 0.00 0.00 66 1015.1
20260507075603 53 325 0.0 0.0 0.00 0.00 0.00 65 1015.1
20260507075104 53 325 0.0 0.0 0.00 0.00 0.00 64 1015.1
20260507074603 53 325 0.0 0.0 0.00 0.00 0.00 64 1015.2
20260507074104 53 325 0.0 0.0 0.00 0.00 0.00 63 1015.2
20260507073603 54 325 0.0 0.0 0.00 0.00 0.00 62 1015.2
20260507073104 54 325 0.0 0.0 0.00 0.00 0.00 62 1015.3
20260507072604 54 325 0.0 0.0 0.00 0.00 0.00 61 1015.2
20260507072103 54 325 0.0 0.0 0.00 0.00 0.00 61 1015.2
20260507071604 55 325 0.0 0.0 0.00 0.00 0.00 61 1015.3
20260507071103 55 325 0.0 0.0 0.00 0.00 0.00 60 1015.2
20260507065604 56 325 0.0 0.0 0.00 0.00 0.00 59 1015.3
20260507065104 56 325 0.0 0.0 0.00 0.00 0.00 58 1015.3
20260507064604 56 325 0.0 0.0 0.00 0.00 0.00 58 1015.3
20260507064104 56 325 0.0 0.0 0.00 0.00 0.00 58 1015.2
20260507063604 56 325 0.0 0.0 0.00 0.00 0.00 59 1015.3
20260507063104 56 325 0.0 0.0 0.00 0.00 0.00 59 1015.3
20260507062603 57 325 0.0 0.0 0.00 0.00 0.00 59 1015.3
20260507062104 57 325 0.0 0.0 0.00 0.00 0.00 59 1015.3
20260507061603 57 325 0.0 0.0 0.00 0.00 0.00 59 1015.3
20260507061104 57 325 0.0 0.0 0.00 0.00 0.00 59 1015.4
20260507060603 58 325 0.0 0.0 0.00 0.00 0.00 58 1015.4
20260507060104 58 325 0.0 0.0 0.00 0.00 0.00 57 1015.4
20260507055604 58 325 0.0 0.0 0.00 0.00 0.00 57 1015.5
20260507055104 58 325 0.0 0.0 0.00 0.00 0.00 56 1015.4
20260507054604 59 325 0.0 0.0 0.00 0.00 0.00 56 1015.5
20260507053603 59 325 0.0 0.0 0.00 0.00 0.00 56 1015.6
20260507053104 59 325 0.0 0.0 0.00 0.00 0.00 55 1015.6
20260507052604 60 325 0.0 0.0 0.00 0.00 0.00 54 1015.6
20260507052104 60 325 0.0 0.0 0.00 0.00 0.00 53 1015.7
20260507051603 60 325 0.0 0.0 0.00 0.00 0.00 53 1015.7
20260507051103 61 325 0.0 0.0 0.00 0.00 0.00 52 1015.7
20260507050104 61 325 0.0 0.0 0.00 0.00 0.00 51 1015.6
20260507045604 61 325 0.0 0.0 0.00 0.00 0.00 50 1015.5
20260507045103 61 325 0.0 0.0 0.00 0.00 0.00 51 1015.5
20260507044604 62 325 0.0 0.0 0.00 0.00 0.00 51 1015.5
20260507044104 62 325 0.0 0.0 0.00 0.00 0.00 50 1015.5
20260507043604 62 325 0.0 0.0 0.00 0.00 0.00 50 1015.4
20260507043104 62 325 0.0 0.0 0.00 0.00 0.00 51 1015.4
20260507042103 63 325 0.0 0.0 0.00 0.00 0.00 50 1015.3
20260507041603 63 325 0.0 0.0 0.00 0.00 0.00 49 1015.3
20260507041104 63 325 0.0 0.0 0.00 0.00 0.00 49 1015.2
20260507040604 63 325 0.0 0.0 0.00 0.00 0.00 49 1015.1
20260507040104 63 323 0.0 0.0 0.00 0.00 0.00 49 1015.1
20260507035604 63 323 0.0 2.0 0.00 0.00 0.00 49 1015.0
20260507034604 64 324 0.0 0.0 0.00 0.00 0.00 49 1015.0
20260507034103 64 325 1.0 6.0 0.00 0.00 0.00 48 1014.9
20260507032604 65 328 1.0 3.0 0.00 0.00 0.00 46 1014.7
20260507031604 65 329 0.0 2.0 0.00 0.00 0.00 45 1014.7
20260507030604 66 323 0.0 3.0 0.00 0.00 0.00 44 1014.5
20260507025604 66 317 0.0 0.0 0.00 0.00 0.00 43 1014.4
20260507025104 67 314 0.0 0.0 0.00 0.00 0.00 42 1014.3
20260507024604 67 314 1.0 3.0 0.00 0.00 0.00 42 1014.3
20260507024103 67 314 0.0 1.0 0.00 0.00 0.00 43 1014.3
20260507023604 67 327 0.0 3.0 0.00 0.00 0.00 42 1014.3
20260507022604 68 323 1.0 3.0 0.00 0.00 0.00 40 1014.2
20260507022103 68 277 0.0 2.0 0.00 0.00 0.00 40 1014.1
20260507021604 69 238 0.0 1.0 0.00 0.00 0.00 39 1014.0
20260507021104 69 229 0.0 2.0 0.00 0.00 0.00 39 1013.9
20260507020604 69 300 0.0 2.0 0.00 0.00 0.00 38 1014.0
20260507020104 70 294 0.0 2.0 0.00 0.00 0.00 37 1013.9
20260507015604 71 304 0.0 3.0 0.00 0.00 0.00 37 1014.0
20260507015104 71 224 0.0 3.0 0.00 0.00 0.00 38 1013.9
20260507014604 71 294 0.0 6.0 0.00 0.00 0.00 36 1014.0
20260507014103 71 323 1.0 3.0 0.00 0.00 0.00 36 1013.8
20260507013604 72 317 1.0 3.0 0.00 0.00 0.00 36 1013.8
20260507013104 72 324 3.0 12.0 0.00 0.00 0.00 36 1013.9
20260507012604 72 333 2.0 9.0 0.00 0.00 0.00 37 1013.8
20260507012103 72 319 2.0 9.0 0.00 0.00 0.00 38 1013.8
20260507011603 72 327 2.0 12.0 0.00 0.00 0.00 37 1013.8
20260507011104 71 258 1.0 3.0 0.00 0.00 0.00 37 1013.9
20260507010104 71 293 1.0 6.0 0.00 0.00 0.00 35 1013.9
20260507005604 71 297 0.0 3.0 0.00 0.00 0.00 35 1013.8
20260507005103 72 318 2.0 12.0 0.00 0.00 0.00 35 1013.8
20260507004604 72 321 3.0 10.0 0.00 0.00 0.00 35 1013.6
20260507004104 72 329 1.0 10.0 0.00 0.00 0.00 35 1013.6
20260507003604 72 322 2.0 8.0 0.00 0.00 0.00 36 1013.5
20260507002604 73 327 7.0 17.0 0.00 0.00 0.00 33 1013.4
20260507002103 74 327 8.0 17.0 0.00 0.00 0.00 31 1013.4
20260507001603 74 292 4.0 15.0 0.00 0.00 0.00 31 1013.3
20260507001104 75 328 3.0 14.0 0.00 0.00 0.00 31 1013.3
20260507000604 74 318 5.0 17.0 0.00 0.00 0.00 31 1013.2
20260507000104 75 277 3.0 14.0 0.00 0.00 0.00 30 1013.0
20260506235604 75 320 5.0 16.0 0.00 0.00 0.00 30 1013.1
20260506234104 76 320 5.0 14.0 0.00 0.00 0.00 28 1013.1
20260506233604 76 323 6.0 18.0 0.00 0.00 0.00 30 1013.0
20260506233104 77 330 4.0 13.0 0.00 0.00 0.00 29 1013.0
20260506232104 76 318 6.0 15.0 0.00 0.00 0.00 33 1013.0
20260506231604 77 319 6.0 16.0 0.00 0.00 0.00 31 1012.9
20260506231103 77 319 5.0 13.0 0.00 0.00 0.00 31 1013.1
20260506230603 77 329 4.0 12.0 0.00 0.00 0.00 32 1013.0
20260506230104 77 315 5.0 18.0 0.00 0.00 0.00 30 1013.0
20260506225604 78 336 2.0 10.0 0.00 0.00 0.00 29 1013.0
20260506225104 78 330 5.0 13.0 0.00 0.00 0.00 28 1013.0
20260506224604 78 332 3.0 8.0 0.00 0.00 0.00 26 1013.2
20260506224104 78 332 3.0 9.0 0.00 0.00 0.00 25 1013.3
20260506223104 78 329 4.0 14.0 0.00 0.00 0.00 27 1013.5
20260506222604 78 326 6.0 14.0 0.00 0.00 0.00 26 1013.3
20260506222103 78 316 6.0 14.0 0.00 0.00 0.00 26 1013.4
20260506221603 78 326 5.0 13.0 0.00 0.00 0.00 25 1013.4
20260506220603 78 319 5.0 15.0 0.00 0.00 0.00 26 1013.4
20260506220104 79 289 3.0 10.0 0.00 0.00 0.00 26 1013.5
20260506215604 79 313 3.0 9.0 0.00 0.00 0.00 26 1013.6
20260506215104 79 325 5.0 15.0 0.00 0.00 0.00 25 1013.6
20260506214603 79 324 3.0 10.0 0.00 0.00 0.00 25 1013.7
20260506214104 79 310 2.0 8.0 0.00 0.00 0.00 24 1013.7
20260506213603 79 319 4.0 9.0 0.00 0.00 0.00 24 1013.8
20260506213104 80 325 1.0 10.0 0.00 0.00 0.00 25 1013.8
20260506212604 81 328 2.0 6.0 0.00 0.00 0.00 25 1013.8
20260506212104 81 321 0.0 6.0 0.00 0.00 0.00 26 1013.8
20260506211604 81 255 0.0 3.0 0.00 0.00 0.00 26 1013.7
20260506211103 80 329 1.0 3.0 0.00 0.00 0.00 27 1013.7
20260506210603 80 321 0.0 5.0 0.00 0.00 0.00 26 1013.8
20260506210104 80 307 1.0 5.0 0.00 0.00 0.00 26 1013.9
20260506205604 80 17 0.0 0.0 0.00 0.00 0.00 28 1013.9